CW4772 Weather Reports


time (UTC)temp
C
wind
direction
speed
KPH
gust
KPH
rain 1hr
cm
rain 24hr
cm
rain mn
cm
humidity
%
barometer
mb
20260502231704 8 71 1.6 3.2 0.00 0.00 0.00 76 1017.7
20260502223704 8 82 1.6 3.2 0.00 0.00 0.00 74 1017.9
20260502223204 8 82 3.2 3.2 0.00 0.00 0.00 74 1017.9
20260502222704 9 82 1.6 3.2 0.00 0.00 0.00 73 1018.0
20260502221704 9 82 1.6 3.2 0.00 0.00 0.00 72 1018.0
20260502221205 10 82 1.6 3.2 0.00 0.00 0.00 71 1018.0
20260502215704 10 88 3.2 4.8 0.00 0.00 0.00 68 1018.1
20260502212705 10 121 3.2 4.8 0.00 0.00 0.00 69 1018.3
20260502211704 10 105 4.8 4.8 0.00 0.00 0.00 70 1018.3
20260502210704 11 90 3.2 8.0 0.00 0.00 0.00 66 1018.3
20260502210205 11 107 3.2 8.0 0.00 0.00 0.00 65 1018.4
20260502205705 11 98 4.8 9.7 0.00 0.00 0.00 64 1018.3
20260502204704 12 99 4.8 9.7 0.00 0.00 0.00 63 1018.4
20260502203706 12 114 4.8 9.7 0.00 0.00 0.00 60 1018.5
20260502202705 12 119 4.8 9.7 0.00 0.00 0.00 61 1018.5
20260502201205 13 111 4.8 11.3 0.00 0.00 0.00 60 1018.5
20260502194703 11 97 4.8 9.7 0.00 0.00 0.00 69 1018.6
20260502193203 12 96 1.6 3.2 0.00 0.00 0.00 70 1018.8
20260502192703 12 81 1.6 3.2 0.00 0.00 0.00 69 1018.7
20260502191703 12 81 1.6 3.2 0.00 0.00 0.00 68 1018.7
20260502191203 12 115 1.6 4.8 0.00 0.00 0.00 67 1018.8
20260502190703 13 115 1.6 4.8 0.00 0.00 0.00 66 1018.7
20260502185703 13 92 1.6 3.2 0.00 0.00 0.00 65 1018.8
20260502184703 14 90 1.6 3.2 0.00 0.00 0.00 61 1018.8
20260502183702 14 90 3.2 4.8 0.00 0.00 0.00 58 1018.7
20260502183202 15 99 1.6 4.8 0.00 0.00 0.00 57 1018.7
20260502180705 17 119 1.6 4.8 0.00 0.00 0.00 48 1018.6
20260502180203 17 119 3.2 4.8 0.00 0.00 0.00 46 1018.5
20260502164203 20 143 4.8 12.9 0.00 0.00 0.00 37 1018.7
20260502163704 20 104 8.0 14.5 0.00 0.00 0.00 36 1018.8
20260502163205 21 132 8.0 14.5 0.00 0.00 0.00 35 1018.9
20260502162703 21 140 4.8 14.5 0.00 0.00 0.00 35 1019.0
20260502162203 21 174 4.8 14.5 0.00 0.00 0.00 35 1019.0
20260502161203 21 168 1.6 14.5 0.00 0.00 0.00 35 1019.0
20260502160703 21 172 6.4 14.5 0.00 0.00 0.00 34 1019.1
20260502152203 21 131 3.2 4.8 0.00 0.00 0.00 34 1019.5
20260502150703 21 282 4.8 8.0 0.00 0.00 0.00 35 1019.7
20260502121203 21 208 3.2 12.9 0.00 0.00 0.00 38 1021.8
20260502114203 20 321 3.2 9.7 0.00 0.00 0.00 39 1022.1
20260502113704 21 156 4.8 11.3 0.00 0.00 0.00 40 1022.2
20260502113203 21 170 4.8 11.3 0.00 0.00 0.00 38 1022.4
20260502112703 21 213 6.4 11.3 0.00 0.00 0.00 40 1022.4
20260502112203 21 214 3.2 11.3 0.00 0.00 0.00 41 1022.4
20260502111202 21 260 4.8 14.5 0.00 0.00 0.00 40 1022.6
20260502110704 21 165 8.0 14.5 0.00 0.00 0.00 40 1022.6
20260502110203 21 163 4.8 12.9 0.00 0.00 0.00 43 1022.7
20260502105703 21 152 8.0 12.9 0.00 0.00 0.00 44 1022.8
20260502105203 20 219 3.2 12.9 0.00 0.00 0.00 45 1022.8
20260502104703 20 211 4.8 14.5 0.00 0.00 0.00 44 1022.9
20260502104204 20 222 8.0 14.5 0.00 0.00 0.00 46 1023.0
20260502103704 20 203 8.0 14.5 0.00 0.00 0.00 44 1023.0
20260502102203 20 223 3.2 11.3 0.00 0.00 0.00 48 1023.0
20260502101703 20 217 6.4 19.3 0.00 0.00 0.00 47 1023.0
20260502101203 20 134 6.4 19.3 0.00 0.00 0.00 47 1023.0
20260502100703 20 191 8.0 19.3 0.00 0.00 0.00 47 1023.1
20260502090205 18 243 4.8 12.9 0.00 0.00 0.00 53 1023.8
20260502070704 16 240 1.6 4.8 0.00 0.00 0.00 61 1024.4
20260502070204 16 238 3.2 4.8 0.00 0.00 0.00 63 1024.5
20260502065203 16 233 3.2 4.8 0.00 0.00 0.00 64 1024.5
20260502064703 15 223 1.6 4.8 0.00 0.00 0.00 68 1024.5
20260502064203 15 223 3.2 4.8 0.00 0.00 0.00 68 1024.5
20260502061704 14 32 1.6 3.2 0.00 0.00 0.00 65 1024.7
20260502055704 12 32 0.0 1.6 0.00 0.00 0.00 77 1024.7
20260502044703 5 32 1.6 3.2 0.00 0.00 0.00 92 1024.7
20260502044203 5 32 1.6 4.8 0.00 0.00 0.00 93 1024.7
20260502043704 4 32 1.6 4.8 0.00 0.00 0.00 93 1024.6
20260502043204 4 32 3.2 4.8 0.00 0.00 0.00 93 1024.7
20260502042704 4 32 3.2 4.8 0.00 0.00 0.00 93 1024.7
20260502041204 3 32 3.2 3.2 0.00 0.00 0.00 94 1024.6
20260502035705 3 32 3.2 4.8 0.00 0.00 0.00 93 1024.6
20260502035204 3 32 1.6 3.2 0.00 0.00 0.00 92 1024.7
20260502034204 3 32 1.6 4.8 0.00 0.00 0.00 92 1024.6
20260502033703 3 32 3.2 4.8 0.00 0.00 0.00 92 1024.5
20260502032204 3 46 3.2 4.8 0.00 0.00 0.00 92 1024.6
20260502031204 3 46 3.2 4.8 0.00 0.00 0.00 93 1024.6
20260502030704 3 46 1.6 3.2 0.00 0.00 0.00 93 1024.6
20260502025203 3 46 3.2 4.8 0.00 0.00 0.00 92 1024.7
20260502024704 4 46 3.2 4.8 0.00 0.00 0.00 93 1024.7
20260502024204 4 46 3.2 4.8 0.00 0.00 0.00 93 1024.8
20260502023204 3 46 3.2 4.8 0.00 0.00 0.00 93 1024.8
20260502021704 3 46 3.2 4.8 0.00 0.00 0.00 93 1024.9
20260502021204 3 46 3.2 4.8 0.00 0.00 0.00 93 1024.9
20260502020204 4 46 1.6 3.2 0.00 0.00 0.00 92 1024.9
20260502015204 4 46 3.2 4.8 0.00 0.00 0.00 92 1025.0
20260502014204 4 46 1.6 4.8 0.00 0.00 0.00 92 1025.0
20260502011704 4 46 1.6 3.2 0.00 0.00 0.00 92 1025.2
20260502011205 5 46 3.2 3.2 0.00 0.00 0.00 92 1025.3
20260502010704 5 46 1.6 4.8 0.00 0.00 0.00 92 1025.3
20260502010203 5 46 1.6 4.8 0.00 0.00 0.00 92 1025.4
20260502005705 5 46 3.2 4.8 0.00 0.00 0.00 92 1025.3
20260502005203 5 46 3.2 3.2 0.00 0.00 0.00 92 1025.3
20260502003204 5 46 3.2 4.8 0.00 0.00 0.00 92 1025.5
20260502001703 5 46 3.2 4.8 0.00 0.00 0.00 92 1025.6
20260501234704 5 46 3.2 4.8 0.00 0.00 0.00 91 1025.8
20260501233204 5 46 1.6 3.2 0.00 0.00 0.00 90 1025.8
20260501232704 5 46 1.6 3.2 0.00 0.00 0.00 90 1025.8